Regional Weather Roundup
Issued by NWS

Home | Current Version | Previous Version | Graphics & Text | Print | Product List | Glossary On
Versions: 1 2 3 4 5 6 7 8 9 10 11 12 13 14 15 16 17 18 19 20 21 22 23 24 25 26 27 28 29 30 31 32 33 34 35 36 37 38 39 40 41 42 43 44 45 46 47 48 49 50
828
ASUS45 KSLC 211310
RWRUT

UTAH REGIONAL WEATHER ROUNDUP
NATIONAL WEATHER SERVICE SALT LAKE CITY UT
700 AM MDT FRI JUL 21 2017

UTZ001>011-023>025-211400-

NORTHERN UTAH

CITY           SKY/WX    TMP DP  RH WIND       PRES   REMARKS
BRIGHAM CITY   MOCLDY    73  49  42 CALM      30.07R
HILL AFB       MOCLDY    76  51  41 S10       30.10R
LOGAN          MOCLDY    66  57  72 E7        30.10R
OGDEN          MOCLDY    76  53  44 S7        30.06R
SALT LAKE CITY MOCLDY    78  55  44 S6        30.05R
TOOELE VALLEY  PTCLDY    70  52  52 CALM      30.07R
WENDOVER       CLEAR     71  41  33 CALM      30.07R
HEBER CITY     CLOUDY    63  54  72 CALM      30.16S
WEST JORDAN    CLOUDY    73  60  62 SW7       30.09R

$$

UTZ011>015-024>027-211400-

CENTRAL/NORTHEAST UTAH

CITY           SKY/WX    TMP DP  RH WIND       PRES   REMARKS
PROVO AIRPORT    N/A     70  54  56 SE6       30.10R
MOAB/CANYONLAN MOCLDY    69  64  84 CALM      30.10R
DELTA          PTCLDY    70  48  46 S8        30.10R
PRICE          MOCLDY    66  52  60 W3        30.20R
ROOSEVELT      CLOUDY    63  54  72 CALM      30.18S
VERNAL         CLEAR     66  55  67 W6        30.16R

$$

UTZ013>016-019>022-027-211400-

SOUTHERN UTAH

CITY           SKY/WX    TMP DP  RH WIND       PRES   REMARKS
BRYCE CANYON   PTCLDY    54  50  86 W5        30.34R
CEDAR CITY     PTCLDY    65  46  50 S5        30.17R
MILFORD        CLEAR     69  50  50 SW13      30.12R
ST GEORGE      CLOUDY    77  51  40 S7        29.99R
HANKSVILLE     CLEAR     68  55  64 CALM      30.13R
BLANDING       CLOUDY    63  60  90 NW5       30.31R

$$

REGIONAL REPORTS     COLORADO/ARIZONA

CITY           SKY/WX    TMP DP  RH WIND       PRES   REMARKS
CRAIG, CO      SUNNY     63  51  65 VRB3      30.23R
GRAND JUNCTION CLOUDY    71  57  61 SE8       30.14S
RIFLE, CO      CLOUDY    65  57  75 CALM      30.22R
MONTROSE, CO   CLOUDY    65  49  56 SE9       30.23R
CORTEZ, CO     CLOUDY    60  56  86 CALM      30.24R
COLORADO CITY    N/A     63  57  82 CALM      30.17R
PAGE, AZ       MOCLDY    77  59  53 VRB3      30.09R
GRAND CANYON   MOCLDY    58  56  93 CALM      30.28S
KINGMAN, AZ    CLEAR     73  59  61 SE7       30.05R
FLAGSTAFF, AZ  CLOUDY    58  57  97 CALM      30.33R

$$

REGIONAL REPORTS    NEVADA/IDAHO/WYOMING

CITY           SKY/WX    TMP DP  RH WIND       PRES   REMARKS
LAS VEGAS, NV  MOCLDY    85  45  24 VRB3      29.91R
ELY, NY        PTCLDY    51  44  77 S6        30.23R
ELKO, NV       PTCLDY    51  25  36 SE3       30.17R
POCATELLO, ID  CLEAR     56  39  53 CALM      30.12R
BURLEY, ID     CLEAR     55  43  63 S6        30.10R
FORT BRIDGER,    N/A     61  54  77 W7        30.28R
EVANSTON, WY   CLOUDY    60  51  72 N5        30.28R
ROCK SPRINGS,  CLOUDY    60  52  74 N7        30.24R
KEMMERER, WY     N/A     57  50  77 N7        30.28S

$$




USA.gov is the U.S. government's official web portal to all federal, state and local government web resources and services.